Powrót do katalogu

STARLINK-32923

AktywnyŁącznośćVLEO
NORAD 63097·PAYLOAD·🇺🇸 United States

Wystrzelony Feb 23, 2025 z Vandenberg Space Force Base

Loading…

Następne Przeloty (najbliższe 24 godziny)

TLE

ŚwieżeSource: CelesTrak SupGP

Epoka: Sep 14, 2026, 21:11 UTC

1 63097C 25037W   26257.88312500  .00055535  00000+0  19320-2 0  2577
2 63097  70.0007 235.6956 0003061 266.4144 139.8006 15.29549222    13

Śledź STARLINK-32923 w czasie rzeczywistym z AllMySat

Download on the App Store